Погода в Фонтенбле

Франция     48°24′21″N   2°41′40″E
темп.,
°C
ветер,
м/с
пор.,
м/с
влажн.,
%
обл.,
%
осадки,
мм/ч
давл.,
гПа
погр.,
м
13 мая, чт
чт1323:00+8ююв369335 0.0 1009117
02:00+9ю51191100 0.3 1008487
05:00+8зюз61096100 6.6 1008641
08:00+6зюз4109330 6.7 1010432
11:00+10ююз4581100 0.1 1009747
14:00+14юз5668100 0.6 10081537
17:00+14юз467033 1.1 10071149
20:00+12юз478899 3.0 1007293
14 мая, пт
пт1423:00+8ююз3895100 0.4 1008185
02:00+7юз369852 0.9 1008146
05:00+5юз389667 0.0 1008166
08:00+7ююз4109587 0.0 1009384
11:00+8ююз5995100 0.2 1010527
14:00+11ююз588597 0.5 1009937
17:00+13з698187 2.2 10091370
20:00+11з59875 3.1 1010531
15 мая, сб
сб1523:00+8юз3494100 0.1 101172
02:00+8юз41097100 0.3 1010343
05:00+7юз41197100 0.0 1009447
08:00+8ю51095100 0.6 1007858
11:00+8ююз61295100 0.8 1006820
14:00+16зюз710526 1.1 10052194
17:00+16з69545 0.1 10051875
20:00+13зюз598280 0.8 1006498
16 мая, вс
вс1623:00+11юз51391100 0.8 1008527
02:00+9юз5129488 1.0 1008464
05:00+8ююз4119894 0.0 1007425
08:00+10юз4989100 0.0 1007736
11:00+14зюз7107125 0.2 10071159
14:00+16зюз8115818 0.5 10061936
17:00+16зюз813614 1.1 10041990
20:00+13зюз7147433 1.6 10051188
17 мая, пн
пн1723:00+11юз8157574 0.1 1007991
02:00+11юз91573100 0.1 10071242
05:00+10юз81581100 0.2 10071207
08:00+10юз81481100 0.3 10081165
11:00+11зюз8138587 0.5 10091150
14:00+15зюз8126388 1.1 10101884
17:00+14зюз812785 1.7 10101451
20:00+12зюз6118699 3.3 1011751